Location: Unspecified
(44.4377°N, 88.0525°W)
Time: 16:09:53
(UTC-06:00)

CZ-3 Stage 3 - Visible Passes

Search period start: 23 November 2014 00:00
Search period end: 03 December 2014 00:00
Orbit: 426 x 34808 km, 31.0° (Epoch: 23 November)

Date Brightness Start Highest point End Pass type
(mag) Time Alt. Az. Time Alt. Az. Time Alt. Az.
23 Nov 5.9 05:18:26 16° W 06:06:52 40° SW 06:14:59 10° SSE visible
23 Nov 7.3 18:15:31 10° SSE 02:18:23 64° S 02:41:14 10° ESE visible
24 Nov 8.0 17:18:50 10° ESE 22:28:10 40° ESE 23:00:12 10° E visible
25 Nov 5.9 22:11:56 10° SW 06:02:23 39° SW 06:10:31 10° SSE visible
26 Nov 7.2 18:07:02 10° SSE 02:14:30 64° S 02:36:56 10° ESE visible
27 Nov 7.9 17:03:33 10° ESE 22:29:30 39° ESE 22:56:12 10° E visible
29 Nov 6.0 05:21:03 17° W 05:57:50 37° SW 06:06:00 10° SSE visible
29 Nov 7.2 17:58:53 10° SSE 02:10:32 65° S 02:32:35 10° ESE visible
30 Nov 7.9 16:48:22 10° ESE 22:30:03 37° ESE 22:52:07 10° E visible
02 Dec 6.0 05:21:20 18° W 05:53:11 35° SW 06:01:24 10° SSE visible
02 Dec 9.6 17:51:02 10° S 00:00:00 45° SW 00:00:00 45° SW visible
